English version Home page |
Updated on November 27, 2024 |
プロフィール
|
軌道要素Epoch 2024 Oct. 17.0 TT = JDT 2460600.5 T 2024 June 14.53396 TT Rudenko q 1.6363634 (2000.0) P Q n 0.14939782 Peri. 284.41073 +0.60798563 +0.79320444 a 3.5175467 Node 23.13850 -0.69059730 +0.54969434 e 0.5347998 Incl. 5.01546 -0.39169994 +0.26203597 P 6.60 From 105 observations 2024 July 30-Oct. 21, mean residual 0".5.
|
光度変化m1 = 16.5 + 5 logΔ + 10.0 log r
|
軌道要素はM.P.E.C. 2024-U268に掲載されたものです。
|